Weather History for Clinton-Sherman, OK

Change the Weather History Date:

Monday, August 6, 2012

  Actual Average Record
Temperature  
Mean Temperature 90 °F -  
Max Temperature 104 °F 92 °F 107 °F (2003)
Min Temperature 77 °F 69 °F 61 °F (1997)
Cooling Degree Days 24    
Growing Degree Days 40 (Base 50)    
Moisture  
Dew Point 59 °F    
Average Humidity 37    
Maximum Humidity 50    
Minimum Humidity 21    
Precipitation  
Precipitation 0.00 in - - ()
Sea Level Pressure  
Sea Level Pressure 30.01 in    
Wind  
Wind Speed 10 mph (SE)    
Max Wind Speed 21 mph    
Max Gust Speed 31 mph    
Visibility 10 miles    
Events Thunderstorm    
Averages and records for this station are not official NWS values.
T = Trace of Precipitation, MM = Missing Value Source: NWS Daily Summary

Daily Weather History Graph

Daily Weather History Graph

Search for Another Location

Airport:

Trip Planner

Search our weather history database for the weather conditions in past years. The results will help you decide how hot, cold, wet, or windy it might be!

Date:

Astronomy

Aug. 06, 2012 Rise Set
Actual Time 6:49 AM CDT 8:34 PM CDT
Civil Twilight 6:22 AM CDT 9:02 PM CDT
Nautical Twilight 5:48 AM CDT 9:35 PM CDT
Astronomical Twilight 5:13 AM CDT 10:10 PM CDT
Moon 10:59 PM CDT (8/6) 11:26 AM CDT (8/6)
Length of Visible Light 14h 40m
Length of Day
13h 45m
Waning Gibbous, 78% of the Moon is Illuminated
Aug 6
Waning Gibbous
Aug 9
Last Quarter
Aug 17
New
Aug 24
First Quarter
Aug 31
Full

Hourly Weather History & Observations

Time (CDT) Temp. Heat Index Dew Point Humidity Pressure Visibility Wind Dir Wind Speed Gust Speed Precip Events Conditions
12:53 AM 82.0 °F 82.1 °F 59.0 °F 45% 30.09 in 10.0 mi East 10.4 mph - N/A   Clear
1:53 AM 81.0 °F 81.6 °F 60.1 °F 49% 30.09 in 10.0 mi East 9.2 mph - N/A   Clear
2:53 AM 80.1 °F 80.9 °F 60.1 °F 50% 30.08 in 10.0 mi East 9.2 mph - N/A   Clear
3:53 AM 79.0 °F - 59.0 °F 50% 30.08 in 10.0 mi ESE 9.2 mph - N/A   Clear
4:53 AM 79.0 °F - 57.9 °F 48% 30.07 in 10.0 mi ESE 9.2 mph - N/A   Clear
5:53 AM 78.1 °F - 57.0 °F 48% 30.06 in 10.0 mi SE 8.1 mph - N/A   Clear
6:53 AM 77.0 °F - 55.9 °F 48% 30.07 in 10.0 mi ESE 9.2 mph - N/A   Clear
7:53 AM 80.1 °F 80.2 °F 55.9 °F 43% 30.08 in 10.0 mi SE 11.5 mph - N/A   Clear
8:53 AM 84.9 °F 83.7 °F 55.9 °F 37% 30.08 in 10.0 mi SE 11.5 mph - N/A   Clear
9:53 AM 89.1 °F 88.2 °F 59.0 °F 36% 30.08 in 10.0 mi SSE 12.7 mph - N/A   Clear
10:53 AM 93.0 °F 92.3 °F 59.0 °F 32% 30.07 in 10.0 mi SSE 8.1 mph - N/A   Clear
11:53 AM 97.0 °F 96.1 °F 57.9 °F 27% 30.05 in 10.0 mi South 9.2 mph 16.1 mph N/A   Clear
12:53 PM 98.1 °F 97.2 °F 57.9 °F 26% 30.03 in 10.0 mi SW 6.9 mph - N/A   Clear
1:53 PM 99.0 °F 98.1 °F 57.9 °F 25% 30.00 in 10.0 mi Variable 6.9 mph - N/A   Partly Cloudy
2:53 PM 102.9 °F 101.9 °F 55.9 °F 21% 29.97 in 10.0 mi SSW 13.8 mph 17.3 mph N/A   Partly Cloudy
3:53 PM 100.0 °F 98.8 °F 55.9 °F 23% 29.95 in 10.0 mi SW 8.1 mph - N/A Thunderstorm Mostly Cloudy
4:17 PM 91.4 °F 92.1 °F 62.6 °F 38% 30.05 in 10.0 mi ENE 20.7 mph 31.1 mph N/A Thunderstorm Scattered Clouds
4:53 PM 91.0 °F 91.5 °F 62.1 °F 38% 29.96 in 10.0 mi East 16.1 mph - N/A Thunderstorm Clear
5:06 PM 93.2 °F 92.6 °F 59.0 °F 32% 30.03 in 10.0 mi ESE 16.1 mph 25.3 mph N/A   Clear
5:53 PM 96.1 °F 95.6 °F 59.0 °F 29% 29.93 in 10.0 mi ESE 13.8 mph - 0.00 in   Clear
6:53 PM 93.0 °F 92.7 °F 60.1 °F 33% 29.92 in 10.0 mi ESE 10.4 mph - N/A   Clear
7:53 PM 93.9 °F 93.2 °F 59.0 °F 31% 29.92 in 10.0 mi SE 10.4 mph - N/A   Clear
8:53 PM 90.0 °F 89.7 °F 60.1 °F 37% 29.92 in 10.0 mi ESE 9.2 mph - N/A   Clear
9:53 PM 87.1 °F 87.5 °F 62.1 °F 43% 29.93 in 10.0 mi ESE 8.1 mph - N/A   Clear
10:53 PM 87.1 °F 87.0 °F 61.0 °F 41% 29.93 in 10.0 mi SE 8.1 mph - N/A   Mostly Cloudy
11:53 PM 86.0 °F 85.7 °F 60.1 °F 41% 29.92 in 10.0 mi SSE 9.2 mph - N/A   Clear